STARLINK-32439, 61665

Orbit data source: Space-Track

STARLINK-32439, 61665 is a payload satellite owned by SpaceX/Seattle (US) in LEO that was launched on Sat, 26 Oct 2024 UTC via an FALCON 9 launch vehicle from the Air Force Eastern Test Range (AFETR). Payload-class satellites include a variety of spacecraft equipped with specific instruments for various scientific and technological missions. These include communications satellites like Starlink; space stations such as the ISS; scientific satellites like the Hubble; Earth observation satellites from companies like Planet Labs, Umbra, and HawkEye 360; GPS; miniature CubeSats for education and research; and military/defense satellites.

Loading next visibility...
Identifier
61665, 2024-193E
Orbit
LEO
Last TLE update
4 hours ago
Origin
Manufacturer
SpaceX/Seattle
Mission
Operational Commercial Communications
Bus & Motor
STARLINK V2M, Unknown motor
Mass
730 kg wet, ~700 kg dry
Launch date (UTC)
2024-10-26 (8 months ago)
Launch vehicle
FALCON 9
Launch site
Air Force Eastern Test Range (AFETR)
Object type
Payload
Rocket body
Debris
Shape & HBR
Box + 2 Pan, 29 m
Radar Cross Section
36.964 m², Large (>1 m²)

Expand to show TLE details & history

TLE from 4 hours ago
0 STARLINK-32439
1 61665U 24193E   25182.23846687  .00000166  00000-0  17729-4 0  9998
2 61665  53.1594 179.3043 0001292  89.1651 270.9498 15.30187518 39194
Epoch: 2025-07-01T05:43Z
TLE epoch observation values (Epoch: 2025-07-01T05:43:23.537Z)
Latitude
-0.00001°
Longitude
173.91944°
Altitude
476.137 km
Speed
7.629 km/s
True Right ascension
11h 57m 13s
True Declination
0° 00' 00"
Sunlit
Object was in daylight at epoch
Visualization orbit readout
Latitude
52.8517°
Longitude
-86.3213°
Altitude
480.843 km
Speed
7.632 km/s
Apparent Right ascension
12h 46m 10s
Apparent Declination
26° 12' 57"
Sunlit
Object is in daylight
Visualization observer readout
Local Sidereal Time
20:54:53
Azimuth
310.361° NW
Elevation
-4.759°
Doppler factor
1
Orbital elements
Apogee altitude
476.394 km
Perigee altitude
474.623 km
Semi-major axis
6,853.646 km
Eccentricity
0.00013
Inclination
53.1594°
RAAN
179.3043°
Arg. of periapsis
89.1651°
True anomaly
Unknown
Mean anomaly
270.9498°
Eccentric anomaly
Unknown
Mean motion
3.82526 °/min
Orbital period
94.11 mins
BSTAR
0.000017729
Loading maneuver chart data...
Loading SW <> Apogee altitude chart data...
Loading historical data...
Loading historical data...
Loading historical data...
Loading historical data...
Loading historical data...
Loading historical data...
Loading historical data...

STARLINK-32439 Visibility forecast

Observer location: undefined°, undefined°

Span
Click to sort rows by Start time (UTC) header in descending order
Start Az.
Max El. time (UTC)
Max El. Az.
Max El.
End time (UTC)
End Az.
6 mins2025-07-01 09:20:37.711Z316.366° NNW2025-07-01 09:23:37.711Z10.455° NNE40.88°2025-07-01 09:26:37.711Z116.729° SE
5 mins2025-07-02 02:17:37.711Z210.147° SW2025-07-02 02:19:37.711Z111.848° ESE41.327°2025-07-02 02:22:37.711Z56.454° ENE
5 mins2025-07-02 08:52:37.711Z329.316° NNW2025-07-02 08:54:37.711Z51.93° ENE38.547°2025-07-02 08:57:37.711Z113.493° SE
|